Time,TemperatureF,DewpointF,PressureIn,WindDirection,WindDirectionDegrees,WindSpeedMPH,WindSpeedGustMPH,Humidity,HourlyPrecipIn,Conditions,Clouds,dailyrainin,SoftwareType,DateUTC
2013-06-13 00:01:00,81.1,72.5,29.99,North,0,0.0,0.0,75,0.00,,,0.00,meteohub,2013-06-13 04:01:00,
2013-06-13 00:02:00,81.1,72.5,29.99,North,0,0.0,0.0,75,0.00,,,0.00,meteohub,2013-06-13 04:02:00,
2013-06-13 00:03:00,81.1,72.5,29.99,North,0,0.0,0.0,75,0.00,,,0.00,meteohub,2013-06-13 04:03:00,
2013-06-13 00:05:00,81.1,72.5,29.99,North,0,0.0,0.0,75,0.00,,,0.00,meteohub,2013-06-13 04:05:00,
2013-06-13 00:10:00,81.0,72.7,29.99,North,0,0.0,0.0,76,0.00,,,0.00,meteohub,2013-06-13 04:10:00,
2013-06-13 00:15:00,81.0,72.7,29.99,North,0,0.0,0.0,76,0.00,,,0.00,meteohub,2013-06-13 04:15:00,
2013-06-13 00:20:00,80.8,72.5,29.99,North,0,0.0,0.0,76,0.00,,,0.00,meteohub,2013-06-13 04:20:00,
2013-06-13 00:25:00,80.8,72.5,29.99,North,0,0.0,0.0,76,0.00,,,0.00,meteohub,2013-06-13 04:25:00,
2013-06-13 00:30:00,80.6,72.7,29.99,North,0,0.0,0.0,77,0.00,,,0.00,meteohub,2013-06-13 04:30:00,
2013-06-13 00:35:00,80.6,72.7,29.99,North,0,0.0,0.0,77,0.00,,,0.00,meteohub,2013-06-13 04:35:00,
2013-06-13 00:41:00,80.4,72.9,29.99,North,0,0.0,0.0,78,0.00,,,0.00,meteohub,2013-06-13 04:41:00,
2013-06-13 00:46:00,80.2,73.0,29.99,North,0,0.0,0.0,79,0.00,,,0.00,meteohub,2013-06-13 04:46:00,
2013-06-13 00:51:00,80.1,73.0,29.99,North,0,0.0,0.0,79,0.00,,,0.00,meteohub,2013-06-13 04:51:00,
2013-06-13 00:57:00,79.9,72.9,29.99,North,0,0.0,0.0,79,0.00,,,0.00,meteohub,2013-06-13 04:57:00,
2013-06-13 01:02:00,79.7,73.0,29.98,North,0,0.0,0.0,80,0.00,,,0.00,meteohub,2013-06-13 05:02:00,
2013-06-13 01:07:00,79.5,72.9,29.98,North,0,0.0,0.0,80,0.00,,,0.00,meteohub,2013-06-13 05:07:00,
2013-06-13 01:12:00,79.3,73.0,29.98,North,0,0.0,0.0,81,0.00,,,0.00,meteohub,2013-06-13 05:12:00,
2013-06-13 01:17:00,79.2,72.9,29.98,North,0,0.0,0.0,81,0.00,,,0.00,meteohub,2013-06-13 05:17:00,
2013-06-13 01:22:00,79.2,73.2,29.97,North,0,0.0,0.0,82,0.00,,,0.00,meteohub,2013-06-13 05:22:00,
2013-06-13 01:27:00,79.2,73.2,29.97,North,0,0.0,0.0,82,0.00,,,0.00,meteohub,2013-06-13 05:27:00,
2013-06-13 01:33:00,79.2,73.2,29.97,North,0,0.0,0.0,82,0.00,,,0.00,meteohub,2013-06-13 05:33:00,
2013-06-13 01:38:00,79.0,73.0,29.97,North,0,0.0,0.0,82,0.00,,,0.00,meteohub,2013-06-13 05:38:00,
2013-06-13 01:43:00,78.8,72.9,29.97,North,0,0.0,0.0,82,0.00,,,0.00,meteohub,2013-06-13 05:43:00,
2013-06-13 01:48:00,78.6,73.0,29.97,North,0,0.0,0.0,83,0.00,,,0.00,meteohub,2013-06-13 05:48:00,
2013-06-13 01:53:00,78.4,72.9,29.97,North,0,0.0,0.0,83,0.00,,,0.00,meteohub,2013-06-13 05:53:00,
2013-06-13 01:58:00,78.3,73.0,29.97,North,0,0.0,0.0,84,0.00,,,0.00,meteohub,2013-06-13 05:58:00,
2013-06-13 02:04:00,78.3,73.0,29.97,North,0,0.0,0.0,84,0.00,,,0.00,meteohub,2013-06-13 06:04:00,
2013-06-13 02:09:00,78.1,72.9,29.97,North,0,0.0,0.0,84,0.00,,,0.00,meteohub,2013-06-13 06:09:00,
2013-06-13 02:14:00,78.1,72.9,29.96,North,0,0.0,0.0,84,0.00,,,0.00,meteohub,2013-06-13 06:14:00,
2013-06-13 02:19:00,78.1,72.9,29.96,North,0,0.0,0.0,84,0.00,,,0.00,meteohub,2013-06-13 06:19:00,
2013-06-13 02:24:00,78.1,72.9,29.96,North,0,0.0,0.0,84,0.00,,,0.00,meteohub,2013-06-13 06:24:00,
2013-06-13 02:29:00,78.3,73.0,29.96,North,0,0.0,0.0,84,0.00,,,0.00,meteohub,2013-06-13 06:29:00,
2013-06-13 02:34:00,78.3,73.0,29.96,North,0,0.0,0.0,84,0.00,,,0.00,meteohub,2013-06-13 06:34:00,
2013-06-13 02:39:00,78.3,73.0,29.96,North,0,0.0,0.0,84,0.00,,,0.00,meteohub,2013-06-13 06:39:00,
2013-06-13 02:44:00,78.3,73.0,29.96,North,0,0.0,0.0,84,0.00,,,0.00,meteohub,2013-06-13 06:44:00,
2013-06-13 02:49:00,78.3,73.0,29.96,North,0,0.0,0.0,84,0.00,,,0.00,meteohub,2013-06-13 06:49:00,
2013-06-13 02:53:00,78.3,73.0,29.96,North,0,0.0,0.0,84,0.00,,,0.00,meteohub,2013-06-13 06:53:00,
2013-06-13 03:02:00,78.3,73.0,29.96,North,0,0.0,0.0,84,0.00,,,0.00,meteohub,2013-06-13 07:02:00,
2013-06-13 03:08:00,78.3,73.0,29.96,North,0,0.0,0.0,84,0.00,,,0.00,meteohub,2013-06-13 07:08:00,
2013-06-13 03:14:00,78.3,73.0,29.96,North,0,0.0,0.0,84,0.00,,,0.00,meteohub,2013-06-13 07:14:00,
2013-06-13 03:19:00,78.1,72.9,29.96,North,0,0.0,0.0,84,0.00,,,0.00,meteohub,2013-06-13 07:19:00,
2013-06-13 03:24:00,78.1,72.9,29.95,North,0,0.0,0.0,84,0.00,,,0.00,meteohub,2013-06-13 07:24:00,
2013-06-13 03:29:00,78.1,72.9,29.96,North,0,0.0,0.0,84,0.00,,,0.00,meteohub,2013-06-13 07:29:00,
2013-06-13 03:35:00,77.9,73.0,29.96,North,0,0.0,0.0,85,0.00,,,0.00,meteohub,2013-06-13 07:35:00,
2013-06-13 03:40:00,77.9,73.0,29.95,North,0,0.0,0.0,85,0.00,,,0.00,meteohub,2013-06-13 07:40:00,
2013-06-13 03:45:00,77.9,73.0,29.95,North,0,0.0,0.0,85,0.00,,,0.00,meteohub,2013-06-13 07:45:00,
2013-06-13 03:50:00,77.7,72.9,29.95,North,0,0.0,0.0,85,0.00,,,0.00,meteohub,2013-06-13 07:50:00,
2013-06-13 03:55:00,77.7,72.9,29.95,North,0,0.0,0.0,85,0.00,,,0.00,meteohub,2013-06-13 07:55:00,
2013-06-13 04:00:00,77.5,72.7,29.95,North,0,0.0,0.0,85,0.00,,,0.00,meteohub,2013-06-13 08:00:00,
2013-06-13 04:05:00,77.4,72.5,29.95,North,0,0.0,0.0,85,0.00,,,0.00,meteohub,2013-06-13 08:05:00,
2013-06-13 04:10:00,77.4,72.9,29.95,North,0,0.0,0.0,86,0.00,,,0.00,meteohub,2013-06-13 08:10:00,
2013-06-13 04:15:00,77.2,72.7,29.94,North,0,0.0,0.0,86,0.00,,,0.00,meteohub,2013-06-13 08:15:00,
2013-06-13 04:20:00,77.2,72.7,29.94,North,0,0.0,0.0,86,0.00,,,0.00,meteohub,2013-06-13 08:20:00,
2013-06-13 04:26:00,77.0,72.5,29.95,North,0,0.0,0.0,86,0.00,,,0.00,meteohub,2013-06-13 08:26:00,
2013-06-13 04:31:00,76.8,72.7,29.94,North,0,0.0,0.0,87,0.00,,,0.00,meteohub,2013-06-13 08:31:00,
2013-06-13 04:36:00,76.5,72.7,29.95,North,0,0.0,0.0,88,0.00,,,0.00,meteohub,2013-06-13 08:36:00,
2013-06-13 04:41:00,76.5,72.7,29.94,North,0,0.0,0.0,88,0.00,,,0.00,meteohub,2013-06-13 08:41:00,
2013-06-13 04:46:00,76.3,72.5,29.94,North,0,0.0,0.0,88,0.00,,,0.00,meteohub,2013-06-13 08:46:00,
2013-06-13 04:51:00,76.3,72.5,29.94,North,0,0.0,0.0,88,0.00,,,0.00,meteohub,2013-06-13 08:51:00,
2013-06-13 04:57:00,76.1,72.7,29.94,North,0,0.0,0.0,89,0.00,,,0.00,meteohub,2013-06-13 08:57:00,
2013-06-13 05:02:00,76.1,72.7,29.94,North,0,0.0,0.0,89,0.00,,,0.00,meteohub,2013-06-13 09:02:00,
2013-06-13 05:07:00,76.1,72.7,29.94,North,0,0.0,0.0,89,0.00,,,0.00,meteohub,2013-06-13 09:07:00,
2013-06-13 05:12:00,75.9,72.5,29.94,North,0,0.0,0.0,89,0.00,,,0.00,meteohub,2013-06-13 09:12:00,
2013-06-13 05:17:00,75.9,72.5,29.93,North,0,0.0,0.0,89,0.00,,,0.00,meteohub,2013-06-13 09:17:00,
2013-06-13 05:22:00,75.7,72.7,29.93,North,0,0.0,0.0,90,0.00,,,0.00,meteohub,2013-06-13 09:22:00,
2013-06-13 05:27:00,75.6,72.5,29.93,East,90,0.0,0.0,90,0.00,,,0.00,meteohub,2013-06-13 09:27:00,
2013-06-13 05:33:00,75.4,72.5,29.92,East,90,0.0,1.0,91,0.00,,,0.00,meteohub,2013-06-13 09:33:00,
2013-06-13 05:38:00,75.6,73.0,29.93,East,90,0.0,1.0,92,0.00,,,0.00,meteohub,2013-06-13 09:38:00,
2013-06-13 05:43:00,75.7,72.9,29.92,East,90,0.0,1.0,91,0.00,,,0.00,meteohub,2013-06-13 09:43:00,
2013-06-13 05:48:00,75.9,73.0,29.91,East,90,0.0,0.0,91,0.00,,,0.00,meteohub,2013-06-13 09:48:00,
2013-06-13 05:53:00,76.1,72.9,29.91,East,90,0.0,0.0,90,0.00,,,0.00,meteohub,2013-06-13 09:53:00,
2013-06-13 05:58:00,76.3,72.9,29.91,East,90,0.0,0.0,89,0.00,,,0.00,meteohub,2013-06-13 09:58:00,
2013-06-13 06:03:00,76.5,73.0,29.91,East,90,0.0,0.0,89,0.00,,,0.00,meteohub,2013-06-13 10:03:00,
2013-06-13 06:08:00,76.3,72.9,29.91,East,90,0.0,0.0,89,0.00,,,0.00,meteohub,2013-06-13 10:08:00,
2013-06-13 06:13:00,76.5,73.0,29.91,SE,135,0.0,0.0,89,0.00,,,0.00,meteohub,2013-06-13 10:13:00,
2013-06-13 06:19:00,76.6,73.2,29.90,SE,135,0.0,2.0,89,0.00,,,0.00,meteohub,2013-06-13 10:19:00,
2013-06-13 06:24:00,77.0,72.9,29.91,SE,135,0.0,2.0,87,0.00,,,0.00,meteohub,2013-06-13 10:24:00,
2013-06-13 06:29:00,77.2,73.0,29.91,SE,135,0.0,2.0,87,0.00,,,0.00,meteohub,2013-06-13 10:29:00,
2013-06-13 06:34:00,77.2,73.0,29.91,SE,135,0.0,1.0,87,0.00,,,0.00,meteohub,2013-06-13 10:34:00,
2013-06-13 06:39:00,77.4,72.9,29.90,SE,135,0.0,1.0,86,0.00,,,0.00,meteohub,2013-06-13 10:39:00,
2013-06-13 06:44:00,77.4,72.9,29.90,SE,135,0.0,1.0,86,0.00,,,0.00,meteohub,2013-06-13 10:44:00,
2013-06-13 06:50:00,77.5,73.0,29.90,SE,135,0.0,2.0,86,0.00,,,0.00,meteohub,2013-06-13 10:50:00,
2013-06-13 06:55:00,77.5,73.0,29.90,SE,135,0.0,2.0,86,0.00,,,0.00,meteohub,2013-06-13 10:55:00,
2013-06-13 07:00:00,77.5,73.0,29.90,SE,135,0.0,0.0,86,0.00,,,0.00,meteohub,2013-06-13 11:00:00,
2013-06-13 07:05:00,77.5,73.0,29.90,SE,135,0.0,0.0,86,0.00,,,0.00,meteohub,2013-06-13 11:05:00,
2013-06-13 07:10:00,77.5,73.0,29.91,SE,135,0.0,0.0,86,0.00,,,0.00,meteohub,2013-06-13 11:10:00,
2013-06-13 07:15:00,77.4,72.9,29.91,SE,135,0.0,0.0,86,0.00,,,0.00,meteohub,2013-06-13 11:15:00,
2013-06-13 07:20:00,77.5,73.0,29.91,SE,135,0.0,0.0,86,0.00,,,0.00,meteohub,2013-06-13 11:20:00,
2013-06-13 07:25:00,77.5,73.0,29.91,SE,135,0.0,0.0,86,0.00,,,0.00,meteohub,2013-06-13 11:25:00,
2013-06-13 07:31:00,77.7,73.2,29.91,SE,135,0.0,0.0,86,0.00,,,0.00,meteohub,2013-06-13 11:31:00,
2013-06-13 07:36:00,77.9,73.4,29.91,SE,135,0.0,0.0,86,0.00,,,0.00,meteohub,2013-06-13 11:36:00,
2013-06-13 07:42:00,77.9,73.4,29.91,SE,135,0.0,0.0,86,0.00,,,0.00,meteohub,2013-06-13 11:42:00,
2013-06-13 07:47:00,78.3,73.8,29.91,SE,135,0.0,0.0,86,0.00,,,0.00,meteohub,2013-06-13 11:47:00,
2013-06-13 07:52:00,78.6,73.8,29.91,SE,135,0.0,0.0,85,0.00,,,0.00,meteohub,2013-06-13 11:52:00,
2013-06-13 07:57:00,78.8,73.6,29.91,SE,135,0.0,0.0,84,0.00,,,0.00,meteohub,2013-06-13 11:57:00,
2013-06-13 08:02:00,79.2,73.9,29.91,SE,135,0.0,0.0,84,0.00,,,0.00,meteohub,2013-06-13 12:02:00,
2013-06-13 08:07:00,79.3,74.1,29.91,SE,135,0.0,0.0,84,0.00,,,0.00,meteohub,2013-06-13 12:07:00,
2013-06-13 08:12:00,79.5,73.9,29.91,SE,135,0.0,0.0,83,0.00,,,0.00,meteohub,2013-06-13 12:12:00,
2013-06-13 08:17:00,79.9,74.3,29.91,SE,135,0.0,0.0,83,0.00,,,0.00,meteohub,2013-06-13 12:17:00,
2013-06-13 08:23:00,80.1,74.5,29.91,SE,135,0.0,0.0,83,0.00,,,0.00,meteohub,2013-06-13 12:23:00,
2013-06-13 08:28:00,80.4,74.8,29.91,SE,135,0.0,0.0,83,0.00,,,0.00,meteohub,2013-06-13 12:28:00,
2013-06-13 08:33:00,80.8,74.5,29.91,SE,135,0.0,0.0,81,0.00,,,0.00,meteohub,2013-06-13 12:33:00,
2013-06-13 08:38:00,81.1,74.7,29.91,SE,135,0.0,0.0,81,0.00,,,0.00,meteohub,2013-06-13 12:38:00,
2013-06-13 08:44:00,81.7,74.8,29.91,SE,135,0.0,0.0,80,0.00,,,0.00,meteohub,2013-06-13 12:44:00,
2013-06-13 08:49:00,82.2,74.7,29.91,SE,135,1.0,0.0,78,0.00,,,0.00,meteohub,2013-06-13 12:49:00,
2013-06-13 08:54:00,82.9,75.0,29.91,SE,135,0.0,3.0,77,0.00,,,0.00,meteohub,2013-06-13 12:54:00,
2013-06-13 08:59:00,84.0,75.6,29.91,SE,135,0.0,3.0,76,0.00,,,0.00,meteohub,2013-06-13 12:59:00,
2013-06-13 09:04:00,84.2,75.4,29.91,SE,135,1.0,3.0,75,0.00,,,0.00,meteohub,2013-06-13 13:04:00,
2013-06-13 09:09:00,84.9,75.7,29.91,SE,135,0.0,2.0,74,0.00,,,0.00,meteohub,2013-06-13 13:09:00,
2013-06-13 09:14:00,86.7,75.7,29.90,SE,135,1.0,2.0,70,0.00,,,0.00,meteohub,2013-06-13 13:14:00,
2013-06-13 09:20:00,87.4,75.2,29.90,SE,135,1.0,2.0,67,0.00,,,0.00,meteohub,2013-06-13 13:20:00,
2013-06-13 09:25:00,87.8,74.1,29.91,SE,135,1.0,2.0,64,0.00,,,0.00,meteohub,2013-06-13 13:25:00,
2013-06-13 09:31:00,89.1,75.2,29.91,SE,135,2.0,2.0,64,0.00,,,0.00,meteohub,2013-06-13 13:31:00,
2013-06-13 09:36:00,87.8,74.1,29.90,SE,135,1.0,2.0,64,0.00,,,0.00,meteohub,2013-06-13 13:36:00,
2013-06-13 09:41:00,87.1,74.3,29.90,SE,135,0.0,2.0,66,0.00,,,0.00,meteohub,2013-06-13 13:41:00,
2013-06-13 09:46:00,87.1,74.3,29.90,SE,135,2.0,2.0,66,0.00,,,0.00,meteohub,2013-06-13 13:46:00,
2013-06-13 09:51:00,87.6,75.4,29.90,SE,135,0.0,2.0,67,0.00,,,0.00,meteohub,2013-06-13 13:51:00,
2013-06-13 09:56:00,90.1,75.9,29.90,SE,135,0.0,2.0,63,0.00,,,0.00,meteohub,2013-06-13 13:56:00,
2013-06-13 10:01:00,90.9,75.6,29.90,SE,135,0.0,2.0,61,0.00,,,0.00,meteohub,2013-06-13 14:01:00,
2013-06-13 10:06:00,90.1,74.8,29.90,SE,135,1.0,1.0,61,0.00,,,0.00,meteohub,2013-06-13 14:06:00,
2013-06-13 10:11:00,89.4,75.2,29.89,SE,135,0.0,2.0,63,0.00,,,0.00,meteohub,2013-06-13 14:11:00,
2013-06-13 10:16:00,88.3,74.1,29.89,SE,135,2.0,2.0,63,0.00,,,0.00,meteohub,2013-06-13 14:16:00,
2013-06-13 10:22:00,87.8,74.5,29.89,SE,135,2.0,2.0,65,0.00,,,0.00,meteohub,2013-06-13 14:22:00,
2013-06-13 10:26:00,88.0,74.7,29.89,SE,135,0.0,2.0,65,0.00,,,0.00,meteohub,2013-06-13 14:26:00,
2013-06-13 10:32:00,89.1,75.2,29.89,SE,135,1.0,2.0,64,0.00,,,0.00,meteohub,2013-06-13 14:32:00,
2013-06-13 10:37:00,90.0,74.7,29.89,SE,135,1.0,2.0,61,0.00,,,0.00,meteohub,2013-06-13 14:37:00,
2013-06-13 10:42:00,91.8,75.4,29.89,SE,135,1.0,2.0,59,0.00,,,0.00,meteohub,2013-06-13 14:42:00,
2013-06-13 10:47:00,92.1,74.7,29.89,SE,135,2.0,2.0,57,0.00,,,0.00,meteohub,2013-06-13 14:47:00,
2013-06-13 10:52:00,92.8,75.4,29.89,SE,135,1.0,2.0,57,0.00,,,0.00,meteohub,2013-06-13 14:52:00,
2013-06-13 10:57:00,92.5,74.5,29.89,SE,135,1.0,2.0,56,0.00,,,0.00,meteohub,2013-06-13 14:57:00,
2013-06-13 11:02:00,92.5,74.5,29.89,SE,135,3.0,3.0,56,0.00,,,0.00,meteohub,2013-06-13 15:02:00,
2013-06-13 11:07:00,92.5,74.5,29.89,NW,315,2.0,3.0,56,0.00,,,0.00,meteohub,2013-06-13 15:07:00,
2013-06-13 11:12:00,93.2,74.7,29.89,NW,315,1.0,3.0,55,0.00,,,0.00,meteohub,2013-06-13 15:12:00,
2013-06-13 11:18:00,93.9,74.1,29.88,NW,315,1.0,3.0,53,0.00,,,0.00,meteohub,2013-06-13 15:18:00,
2013-06-13 11:23:00,93.6,72.7,29.88,NW,315,2.0,2.0,51,0.00,,,0.00,meteohub,2013-06-13 15:23:00,
2013-06-13 11:28:00,92.3,73.2,29.88,NW,315,2.0,2.0,54,0.00,,,0.00,meteohub,2013-06-13 15:28:00,
2013-06-13 11:33:00,92.1,72.0,29.88,NW,315,1.0,2.0,52,0.00,,,0.00,meteohub,2013-06-13 15:33:00,
2013-06-13 11:38:00,92.5,73.4,29.87,NW,315,0.0,2.0,54,0.00,,,0.00,meteohub,2013-06-13 15:38:00,
2013-06-13 11:43:00,92.7,74.1,29.87,NW,315,1.0,2.0,55,0.00,,,0.00,meteohub,2013-06-13 15:43:00,
2013-06-13 11:48:00,93.2,73.6,29.87,NW,315,1.0,2.0,53,0.00,,,0.00,meteohub,2013-06-13 15:48:00,
2013-06-13 11:53:00,93.6,72.7,29.86,NW,315,1.0,2.0,51,0.00,,,0.00,meteohub,2013-06-13 15:53:00,
2013-06-13 11:59:00,93.0,73.9,29.86,NW,315,2.0,2.0,54,0.00,,,0.00,meteohub,2013-06-13 15:59:00,
2013-06-13 12:03:00,92.5,72.9,29.86,NW,315,0.0,2.0,53,0.00,,,0.00,meteohub,2013-06-13 16:03:00,
2013-06-13 12:08:00,92.1,72.5,29.86,SE,135,1.0,2.0,53,0.00,,,0.00,meteohub,2013-06-13 16:08:00,
2013-06-13 12:13:00,92.3,72.7,29.86,NW,315,2.0,3.0,53,0.00,,,0.00,meteohub,2013-06-13 16:13:00,
2013-06-13 12:19:00,92.1,72.0,29.85,NW,315,1.0,3.0,52,0.00,,,0.00,meteohub,2013-06-13 16:19:00,
2013-06-13 12:24:00,92.3,72.7,29.85,NW,315,2.0,3.0,53,0.00,,,0.00,meteohub,2013-06-13 16:24:00,
2013-06-13 12:29:00,92.5,71.8,29.85,NW,315,2.0,2.0,51,0.00,,,0.00,meteohub,2013-06-13 16:29:00,
2013-06-13 12:34:00,92.3,72.1,29.84,NW,315,2.0,2.0,52,0.00,,,0.00,meteohub,2013-06-13 16:34:00,
2013-06-13 12:39:00,92.3,72.1,29.85,SE,135,3.0,3.0,52,0.00,,,0.00,meteohub,2013-06-13 16:39:00,
2013-06-13 12:44:00,92.1,72.0,29.84,SE,135,2.0,2.0,52,0.00,,,0.00,meteohub,2013-06-13 16:44:00,
2013-06-13 12:49:00,92.7,72.5,29.84,SE,135,2.0,3.0,52,0.00,,,0.00,meteohub,2013-06-13 16:49:00,
2013-06-13 12:54:00,92.5,71.8,29.83,SE,135,2.0,3.0,51,0.00,,,0.00,meteohub,2013-06-13 16:54:00,
2013-06-13 12:59:00,92.1,70.9,29.83,SE,135,2.0,3.0,50,0.00,,,0.00,meteohub,2013-06-13 16:59:00,
2013-06-13 13:04:00,92.5,72.9,29.83,SE,135,2.0,3.0,53,0.00,,,0.00,meteohub,2013-06-13 17:04:00,
2013-06-13 13:10:00,92.5,71.8,29.83,South,180,3.0,3.0,51,0.00,,,0.00,meteohub,2013-06-13 17:10:00,
2013-06-13 13:15:00,92.5,71.8,29.83,South,180,2.0,4.0,51,0.00,,,0.00,meteohub,2013-06-13 17:15:00,
2013-06-13 13:20:00,92.7,72.0,29.82,South,180,2.0,4.0,51,0.00,,,0.00,meteohub,2013-06-13 17:20:00,
2013-06-13 13:25:00,92.7,72.5,29.82,South,180,2.0,3.0,52,0.00,,,0.00,meteohub,2013-06-13 17:25:00,
2013-06-13 13:30:00,92.1,71.4,29.81,SE,135,2.0,6.0,51,0.00,,,0.00,meteohub,2013-06-13 17:30:00,
2013-06-13 13:35:00,92.1,70.9,29.81,SE,135,3.0,6.0,50,0.00,,,0.00,meteohub,2013-06-13 17:35:00,
2013-06-13 13:40:00,92.1,69.6,29.81,SSE,158,2.0,6.0,48,0.00,,,0.00,meteohub,2013-06-13 17:40:00,
2013-06-13 13:45:00,92.1,70.2,29.81,NW,315,0.0,3.0,49,0.00,,,0.00,meteohub,2013-06-13 17:45:00,
2013-06-13 13:50:00,92.3,70.3,29.81,NW,315,0.0,3.0,49,0.00,,,0.00,meteohub,2013-06-13 17:50:00,
2013-06-13 13:56:00,92.5,71.1,29.80,NW,315,1.0,2.0,50,0.00,,,0.00,meteohub,2013-06-13 17:56:00,
2013-06-13 14:01:00,92.7,71.2,29.80,South,180,2.0,2.0,50,0.00,,,0.00,meteohub,2013-06-13 18:01:00,
2013-06-13 14:06:00,92.5,70.0,29.79,SE,135,2.0,2.0,48,0.00,,,0.00,meteohub,2013-06-13 18:06:00,
2013-06-13 14:11:00,92.3,69.8,29.79,SSE,158,2.0,2.0,48,0.00,,,0.00,meteohub,2013-06-13 18:11:00,
2013-06-13 14:16:00,92.3,69.8,29.79,WNW,293,2.0,2.0,48,0.00,,,0.00,meteohub,2013-06-13 18:16:00,
2013-06-13 14:21:00,92.3,69.8,29.79,NW,315,2.0,2.0,48,0.00,,,0.00,meteohub,2013-06-13 18:21:00,
2013-06-13 14:26:00,92.3,70.3,29.79,South,180,3.0,3.0,49,0.00,,,0.00,meteohub,2013-06-13 18:26:00,
2013-06-13 14:31:00,92.5,70.0,29.78,West,270,2.0,3.0,48,0.00,,,0.00,meteohub,2013-06-13 18:31:00,
2013-06-13 14:36:00,92.5,70.0,29.78,West,270,2.0,3.0,48,0.00,,,0.00,meteohub,2013-06-13 18:36:00,
2013-06-13 14:41:00,92.7,70.7,29.77,NW,315,2.0,3.0,49,0.00,,,0.00,meteohub,2013-06-13 18:41:00,
2013-06-13 14:47:00,92.7,69.4,29.77,South,180,2.0,3.0,47,0.00,,,0.00,meteohub,2013-06-13 18:47:00,
2013-06-13 14:52:00,92.8,69.6,29.77,SW,225,2.0,3.0,47,0.00,,,0.00,meteohub,2013-06-13 18:52:00,
2013-06-13 14:57:00,93.0,70.3,29.77,SW,225,3.0,3.0,48,0.00,,,0.00,meteohub,2013-06-13 18:57:00,
2013-06-13 15:02:00,93.2,69.3,29.77,South,180,4.0,4.0,46,0.00,,,0.00,meteohub,2013-06-13 19:02:00,
2013-06-13 15:07:00,93.4,69.4,29.77,South,180,4.0,4.0,46,0.00,,,0.00,meteohub,2013-06-13 19:07:00,
2013-06-13 15:12:00,93.6,70.3,29.77,South,180,2.0,4.0,47,0.00,,,0.00,meteohub,2013-06-13 19:12:00,
2013-06-13 15:17:00,93.6,69.1,29.77,South,180,2.0,4.0,45,0.00,,,0.00,meteohub,2013-06-13 19:17:00,
2013-06-13 15:22:00,93.7,69.8,29.77,SE,135,2.0,4.0,46,0.00,,,0.00,meteohub,2013-06-13 19:22:00,
2013-06-13 15:27:00,93.7,69.8,29.77,NW,315,1.0,3.0,46,0.00,,,0.00,meteohub,2013-06-13 19:27:00,
2013-06-13 15:32:00,93.7,70.5,29.77,South,180,3.0,3.0,47,0.00,,,0.00,meteohub,2013-06-13 19:32:00,
2013-06-13 15:37:00,93.7,69.8,29.77,West,270,2.0,3.0,46,0.00,,,0.00,meteohub,2013-06-13 19:37:00,
2013-06-13 15:42:00,93.9,69.3,29.77,West,270,4.0,4.0,45,0.00,,,0.00,meteohub,2013-06-13 19:42:00,
2013-06-13 15:47:00,93.9,69.3,29.77,West,270,2.0,4.0,45,0.00,,,0.00,meteohub,2013-06-13 19:47:00,
2013-06-13 15:52:00,93.9,70.0,29.76,NW,315,2.0,4.0,46,0.00,,,0.00,meteohub,2013-06-13 19:52:00,
2013-06-13 15:58:00,93.9,69.3,29.76,NW,315,2.0,4.0,45,0.00,,,0.00,meteohub,2013-06-13 19:58:00,
2013-06-13 16:03:00,93.9,69.3,29.76,NW,315,2.0,3.0,45,0.00,,,0.00,meteohub,2013-06-13 20:03:00,
2013-06-13 16:08:00,94.5,69.3,29.76,West,270,3.0,3.0,44,0.00,,,0.00,meteohub,2013-06-13 20:08:00,
2013-06-13 16:13:00,94.5,69.8,29.75,NW,315,2.0,3.0,45,0.00,,,0.00,meteohub,2013-06-13 20:13:00,
2013-06-13 16:18:00,93.9,69.3,29.75,West,270,2.0,3.0,45,0.00,,,0.00,meteohub,2013-06-13 20:18:00,
2013-06-13 16:23:00,93.9,68.7,29.75,SW,225,3.0,3.0,44,0.00,,,0.00,meteohub,2013-06-13 20:23:00,
2013-06-13 16:28:00,93.7,69.3,29.74,South,180,2.0,3.0,45,0.00,,,0.00,meteohub,2013-06-13 20:28:00,
2013-06-13 16:34:00,93.4,69.4,29.74,South,180,2.0,4.0,46,0.00,,,0.00,meteohub,2013-06-13 20:34:00,
2013-06-13 16:39:00,93.2,68.0,29.74,South,180,2.0,4.0,44,0.00,,,0.00,meteohub,2013-06-13 20:39:00,
2013-06-13 16:44:00,93.2,68.7,29.74,South,180,2.0,2.0,45,0.00,,,0.00,meteohub,2013-06-13 20:44:00,
2013-06-13 16:49:00,93.0,69.8,29.74,West,270,3.0,4.0,47,0.00,,,0.00,meteohub,2013-06-13 20:49:00,
2013-06-13 16:54:00,93.0,69.3,29.74,SE,135,4.0,4.0,46,0.00,,,0.00,meteohub,2013-06-13 20:54:00,
2013-06-13 16:59:00,93.0,69.3,29.74,West,270,2.0,4.0,46,0.00,,,0.00,meteohub,2013-06-13 20:59:00,
2013-06-13 17:04:00,93.0,70.3,29.74,SE,135,2.0,7.0,48,0.00,,,0.00,meteohub,2013-06-13 21:04:00,
2013-06-13 17:10:00,92.8,70.3,29.75,NW,315,2.0,7.0,48,0.00,,,0.00,meteohub,2013-06-13 21:10:00,
2013-06-13 17:15:00,92.8,70.3,29.75,WSW,248,2.0,4.0,48,0.00,,,0.00,meteohub,2013-06-13 21:15:00,
2013-06-13 17:20:00,92.8,69.6,29.76,West,270,2.0,4.0,47,0.00,,,0.00,meteohub,2013-06-13 21:20:00,
2013-06-13 17:25:00,92.8,69.6,29.76,West,270,2.0,2.0,47,0.00,,,0.00,meteohub,2013-06-13 21:25:00,
2013-06-13 17:30:00,92.5,69.3,29.76,West,270,2.0,3.0,47,0.00,,,0.00,meteohub,2013-06-13 21:30:00,
2013-06-13 17:35:00,91.4,67.1,29.83,West,270,11.0,11.0,45,0.00,,,0.00,meteohub,2013-06-13 21:35:00,
2013-06-13 17:40:00,87.3,60.6,29.85,NW,315,4.0,15.0,41,0.00,,,0.00,meteohub,2013-06-13 21:40:00,
2013-06-13 17:45:00,82.6,62.1,29.86,West,270,11.0,15.0,50,0.00,,,0.00,meteohub,2013-06-13 21:45:00,
2013-06-13 17:51:00,76.3,64.6,29.86,West,270,2.0,15.0,67,0.00,,,0.00,meteohub,2013-06-13 21:51:00,
2013-06-13 17:56:00,72.5,64.6,29.83,NW,315,0.0,11.0,76,0.06,,,0.06,meteohub,2013-06-13 21:56:00,
2013-06-13 18:01:00,70.7,64.6,29.81,NW,315,0.0,11.0,81,0.07,,,0.07,meteohub,2013-06-13 22:01:00,
2013-06-13 18:06:00,70.0,64.6,29.79,NW,315,0.0,2.0,83,0.08,,,0.08,meteohub,2013-06-13 22:06:00,
2013-06-13 18:11:00,69.8,64.8,29.79,NW,315,0.0,0.0,84,0.08,,,0.08,meteohub,2013-06-13 22:11:00,
2013-06-13 18:16:00,69.6,65.7,29.79,NW,315,0.0,0.0,87,0.08,,,0.08,meteohub,2013-06-13 22:16:00,
2013-06-13 18:21:00,69.6,65.8,29.79,NW,315,0.0,0.0,88,0.08,,,0.08,meteohub,2013-06-13 22:21:00,
2013-06-13 18:26:00,69.4,65.7,29.79,NW,315,0.0,0.0,88,0.08,,,0.08,meteohub,2013-06-13 22:26:00,
2013-06-13 18:31:00,69.6,66.2,29.79,NW,315,0.0,0.0,89,0.08,,,0.08,meteohub,2013-06-13 22:31:00,
2013-06-13 18:36:00,69.6,66.6,29.78,NW,315,0.0,0.0,90,0.08,,,0.08,meteohub,2013-06-13 22:36:00,
2013-06-13 18:42:00,69.8,66.7,29.79,NW,315,0.0,0.0,90,0.09,,,0.09,meteohub,2013-06-13 22:42:00,
2013-06-13 18:47:00,69.8,67.3,29.79,NW,315,0.0,0.0,92,0.09,,,0.09,meteohub,2013-06-13 22:47:00,
2013-06-13 18:52:00,70.0,67.5,29.81,NW,315,0.0,0.0,92,0.07,,,0.09,meteohub,2013-06-13 22:52:00,
2013-06-13 18:57:00,70.0,67.5,29.81,NW,315,0.0,0.0,92,0.04,,,0.09,meteohub,2013-06-13 22:57:00,
2013-06-13 19:02:00,70.3,68.2,29.80,NW,315,0.0,0.0,93,0.02,,,0.09,meteohub,2013-06-13 23:02:00,
2013-06-13 19:08:00,70.0,67.8,29.80,West,270,0.0,0.0,93,0.01,,,0.09,meteohub,2013-06-13 23:08:00,
2013-06-13 19:13:00,70.0,67.8,29.80,WSW,248,0.0,0.0,93,0.01,,,0.09,meteohub,2013-06-13 23:13:00,
2013-06-13 19:18:00,69.8,67.6,29.80,WSW,248,0.0,0.0,93,0.01,,,0.09,meteohub,2013-06-13 23:18:00,
2013-06-13 19:23:00,69.8,67.6,29.80,WSW,248,0.0,0.0,93,0.01,,,0.09,meteohub,2013-06-13 23:23:00,
2013-06-13 19:28:00,69.6,67.8,29.80,WSW,248,0.0,0.0,94,0.01,,,0.09,meteohub,2013-06-13 23:28:00,
2013-06-13 19:33:00,69.4,67.6,29.81,WSW,248,0.0,0.0,94,0.01,,,0.09,meteohub,2013-06-13 23:33:00,
2013-06-13 19:38:00,69.4,67.6,29.81,WSW,248,0.0,0.0,94,0.00,,,0.09,meteohub,2013-06-13 23:38:00,
2013-06-13 19:43:00,69.4,67.6,29.81,WSW,248,0.0,0.0,94,0.00,,,0.09,meteohub,2013-06-13 23:43:00,
2013-06-13 19:48:00,69.4,67.6,29.80,WSW,248,0.0,0.0,94,0.00,,,0.09,meteohub,2013-06-13 23:48:00,
2013-06-13 19:53:00,69.4,67.6,29.80,WSW,248,0.0,0.0,94,0.00,,,0.09,meteohub,2013-06-13 23:53:00,
2013-06-13 19:59:00,69.6,67.8,29.80,WSW,248,0.0,0.0,94,0.00,,,0.09,meteohub,2013-06-13 23:59:00,
2013-06-13 20:04:00,69.4,67.6,29.81,WSW,248,0.0,0.0,94,0.00,,,0.09,meteohub,2013-06-14 00:04:00,
2013-06-13 20:09:00,69.4,67.6,29.81,WSW,248,0.0,0.0,94,0.00,,,0.09,meteohub,2013-06-14 00:09:00,
2013-06-13 20:14:00,69.4,67.6,29.82,WSW,248,0.0,0.0,94,0.00,,,0.09,meteohub,2013-06-14 00:14:00,
2013-06-13 20:19:00,69.4,67.6,29.82,WSW,248,0.0,0.0,94,0.00,,,0.09,meteohub,2013-06-14 00:19:00,
2013-06-13 20:24:00,69.4,67.6,29.81,WSW,248,0.0,0.0,94,0.00,,,0.09,meteohub,2013-06-14 00:24:00,
2013-06-13 20:29:00,69.4,67.6,29.82,WSW,248,0.0,0.0,94,0.00,,,0.09,meteohub,2013-06-14 00:29:00,
2013-06-13 20:34:00,69.4,67.6,29.81,WSW,248,0.0,0.0,94,0.00,,,0.09,meteohub,2013-06-14 00:34:00,
2013-06-13 20:40:00,69.4,67.6,29.81,WSW,248,0.0,0.0,94,0.01,,,0.11,meteohub,2013-06-14 00:40:00,
2013-06-13 20:45:00,69.4,67.3,29.80,WSW,248,0.0,0.0,93,0.01,,,0.11,meteohub,2013-06-14 00:45:00,
2013-06-13 20:50:00,69.4,67.3,29.80,WSW,248,0.0,0.0,93,0.01,,,0.11,meteohub,2013-06-14 00:50:00,
2013-06-13 20:55:00,69.4,67.3,29.81,WSW,248,0.0,0.0,93,0.01,,,0.11,meteohub,2013-06-14 00:55:00,
2013-06-13 21:00:00,69.4,67.3,29.81,WSW,248,0.0,0.0,93,0.01,,,0.11,meteohub,2013-06-14 01:00:00,
2013-06-13 21:05:00,69.4,67.3,29.81,WSW,248,0.0,0.0,93,0.01,,,0.11,meteohub,2013-06-14 01:05:00,
2013-06-13 21:11:00,69.4,67.3,29.81,West,270,0.0,1.0,93,0.01,,,0.11,meteohub,2013-06-14 01:11:00,
2013-06-13 21:16:00,69.4,67.3,29.81,West,270,0.0,1.0,93,0.01,,,0.11,meteohub,2013-06-14 01:16:00,
2013-06-13 21:21:00,69.4,67.6,29.81,West,270,0.0,1.0,94,0.01,,,0.11,meteohub,2013-06-14 01:21:00,
2013-06-13 21:26:00,69.4,67.6,29.80,West,270,0.0,0.0,94,0.01,,,0.11,meteohub,2013-06-14 01:26:00,
2013-06-13 21:31:00,69.3,67.5,29.80,West,270,0.0,0.0,94,0.01,,,0.11,meteohub,2013-06-14 01:31:00,
2013-06-13 21:36:00,69.3,67.5,29.81,West,270,0.0,0.0,94,0.00,,,0.11,meteohub,2013-06-14 01:36:00,
2013-06-13 21:42:00,69.3,67.5,29.81,West,270,0.0,0.0,94,0.00,,,0.11,meteohub,2013-06-14 01:42:00,
2013-06-13 21:47:00,69.3,67.5,29.81,West,270,0.0,0.0,94,0.00,,,0.11,meteohub,2013-06-14 01:47:00,
2013-06-13 21:52:00,69.3,67.5,29.81,West,270,0.0,0.0,94,0.00,,,0.11,meteohub,2013-06-14 01:52:00,
2013-06-13 21:57:00,69.3,67.5,29.81,West,270,0.0,0.0,94,0.00,,,0.11,meteohub,2013-06-14 01:57:00,
2013-06-13 22:03:00,69.1,67.3,29.81,West,270,0.0,0.0,94,0.00,,,0.11,meteohub,2013-06-14 02:03:00,
2013-06-13 22:08:00,69.1,67.3,29.81,West,270,0.0,0.0,94,0.00,,,0.11,meteohub,2013-06-14 02:08:00,
2013-06-13 22:13:00,69.1,67.3,29.82,West,270,0.0,0.0,94,0.00,,,0.11,meteohub,2013-06-14 02:13:00,
2013-06-13 22:18:00,69.1,67.3,29.82,West,270,0.0,0.0,94,0.00,,,0.11,meteohub,2013-06-14 02:18:00,
2013-06-13 22:23:00,69.1,67.3,29.82,West,270,0.0,0.0,94,0.00,,,0.11,meteohub,2013-06-14 02:23:00,
2013-06-13 22:29:00,69.1,67.3,29.83,West,270,0.0,0.0,94,0.00,,,0.11,meteohub,2013-06-14 02:29:00,
2013-06-13 22:34:00,69.1,67.3,29.83,West,270,0.0,0.0,94,0.00,,,0.11,meteohub,2013-06-14 02:34:00,
2013-06-13 22:40:00,69.1,67.3,29.83,West,270,0.0,0.0,94,0.00,,,0.11,meteohub,2013-06-14 02:40:00,
2013-06-13 22:45:00,69.1,67.3,29.83,West,270,0.0,0.0,94,0.00,,,0.11,meteohub,2013-06-14 02:45:00,
2013-06-13 22:50:00,69.1,67.3,29.84,West,270,0.0,0.0,94,0.00,,,0.11,meteohub,2013-06-14 02:50:00,
2013-06-13 22:56:00,69.1,67.3,29.84,West,270,0.0,0.0,94,0.00,,,0.11,meteohub,2013-06-14 02:56:00,
2013-06-13 23:01:00,69.1,67.3,29.84,West,270,0.0,0.0,94,0.00,,,0.11,meteohub,2013-06-14 03:01:00,
2013-06-13 23:06:00,69.1,67.3,29.84,West,270,0.0,0.0,94,0.00,,,0.11,meteohub,2013-06-14 03:06:00,
2013-06-13 23:11:00,69.1,67.3,29.84,West,270,0.0,0.0,94,0.00,,,0.11,meteohub,2013-06-14 03:11:00,
2013-06-13 23:17:00,69.1,67.3,29.84,West,270,0.0,0.0,94,0.00,,,0.11,meteohub,2013-06-14 03:17:00,
2013-06-13 23:22:00,69.1,67.3,29.84,West,270,0.0,0.0,94,0.00,,,0.11,meteohub,2013-06-14 03:22:00,
2013-06-13 23:27:00,69.1,67.3,29.85,West,270,0.0,0.0,94,0.00,,,0.11,meteohub,2013-06-14 03:27:00,
2013-06-13 23:32:00,69.1,67.3,29.85,West,270,0.0,0.0,94,0.00,,,0.11,meteohub,2013-06-14 03:32:00,
2013-06-13 23:37:00,69.1,67.3,29.85,West,270,0.0,0.0,94,0.00,,,0.11,meteohub,2013-06-14 03:37:00,
2013-06-13 23:42:00,69.1,67.3,29.86,West,270,0.0,0.0,94,0.00,,,0.11,meteohub,2013-06-14 03:42:00,
2013-06-13 23:47:00,69.1,67.3,29.86,West,270,0.0,0.0,94,0.00,,,0.11,meteohub,2013-06-14 03:47:00,
2013-06-13 23:53:00,69.1,67.3,29.86,West,270,0.0,0.0,94,0.00,,,0.11,meteohub,2013-06-14 03:53:00,
2013-06-13 23:58:00,69.1,67.3,29.86,West,270,0.0,0.0,94,0.00,,,0.11,meteohub,2013-06-14 03:58:00,